Regional Weather Roundup
Issued by NWS Albany, NY

Home | Current Version | Previous Version | Text Only | Print | Product List | Glossary On
Versions: 1 2 3 4 5 6 7 8 9 10 11 12 13 14 15 16 17 18 19 20 21 22 23 24 25 26 27 28
000
ASUS41 KALY 080310
RWRALY

NEW YORK STATE HOURLY WEATHER ROUNDUP
NATIONAL WEATHER SERVICE ALBANY NY
1000 PM EST WED DEC 07 2016

NOTE: "FAIR" INDICATES FEW OR NO CLOUDS BELOW 12,000 FEET WITH NO
SIGNIFICANT WEATHER AND/OR NO OBSTRUCTIONS TO VISIBILITY.

NYZ032-033-038>043-046>054-057>066-NYZ062>081-082-084-080400-
EAST


CITY           SKY/WX    TMP DP  RH WIND       PRES   REMARKS
ALBANY         CLOUDY    34  33  96 CALM      30.00R
GLENS FALLS    PTCLDY    33  29  85 CALM      29.98F
POUGHKEEPSIE   PTCLDY    29  28  96 CALM      30.00S
NEWBURGH       MOCLDY    34  34 100 CALM      30.01F
MONTGOMERY     PTCLDY    31  30  96 SW3       30.00S
WHITE PLAINS   PTCLDY    37  34  89 CALM      30.00F
ISLIP          MOCLDY    37  35  92 CALM      30.01F
NEW YORK CITY  CLOUDY    46  35  65 CALM      30.02F
CENTRAL PARK   CLOUDY    44  34  67 W6        30.04F
$$

NYZ005>009-017-018-044>046-055-056-080400-
CENTRAL


CITY           SKY/WX    TMP DP  RH WIND       PRES   REMARKS
FULTON         CLOUDY    36  27  69 S5        29.97F WCI  32
SYRACUSE       MOCLDY    32  27  81 CALM      29.98S
ROME           PTCLDY    31  29  92 CALM      29.99S
ELMIRA         PTCLDY    31  27  85 CALM      29.97F
BINGHAMTON     PTCLDY    33  25  72 SW6       29.94F WCI  28
MONTICELLO     PTCLDY    30  28  93 CALM      29.99S
$$

NYZ026>034-041>043-087-080400-
NORTH


CITY           SKY/WX    TMP DP  RH WIND       PRES   REMARKS
WATERTOWN      CLOUDY    39  34  82 SW12      29.94F WCI  32
FORT DRUM      NOT AVBL
OGDENSBURG     CLOUDY    36  26  66 SW3       29.92F
MASSENA        PTCLDY    32  23  69 SW8       29.94F WCI  25
SARANAC LAKE   CLOUDY    31  25  78 W7        29.88F WCI  24
PLATTSBURGH    CLOUDY    39  26  59 SW3       29.95S
$$

NYZ001>004-010>016-019>021-085-080400-
WEST


CITY           SKY/WX    TMP DP  RH WIND       PRES   REMARKS
NIAGARA FALLS  MOCLDY    38  28  67 W12       29.95S WCI  30
BUFFALO        MOCLDY    36  25  64 SW15      29.94F WCI  27
DUNKIRK        CLEAR     34  22  61 SW13      29.98F WCI  25
JAMESTOWN      CLEAR     28  21  74 SW9       29.96S WCI  20
WELLSVILLE     CLEAR     31  21  66 W8        29.95S WCI  23
ROCHESTER      MOCLDY    33  26  75 SW6       29.96F WCI  28
PENN YAN       CLEAR     34  25  69 S5        29.96F WCI  30
$$

             KEY
       WCI = WIND CHILL INDEX
       VSB = VISIBILITY
       HX  = HEAT INDEX
$$




USA.gov is the U.S. government's official web portal to all federal, state and local government web resources and services.